Stations météo

Publicité
Ile Rousse, France (7753): Température de l'air & dewpoint: 06.07.2020 10:00:00 - 12.07.2020 10:00:00 (CEST)Ile Rousse, France (7753): Vitesse du vent & gusts: 06.07.2020 10:00:00 - 12.07.2020 10:00:00 (CEST)Ile Rousse, France (7753): Direction du vent: 06.07.2020 10:00:00 - 12.07.2020 10:00:00 (CEST)Ile Rousse, France (7753): reduced air pressure: 06.07.2020 10:00:00 - 12.07.2020 10:00:00 (CEST)Ile Rousse, France (7753): visibility: 06.07.2020 10:00:00 - 12.07.2020 10:00:00 (CEST)Ile Rousse, France (7753): Quantités de précipitations: 06.07.2020 10:00:00 - 12.07.2020 10:00:00 (CEST)
Date & Time tt [°C] td [°C] ff [km/h] ff [knt] fx [km/h] fx [knt] dd ppp [hPa] vv [km] rr [mm]
12.07.2020 10:00:00 24,2 20,3 12 7 18 10 NNE 1015,8 - 0,0
12.07.2020 09:00:00 23,6 19,7 8 4 18 10 NNE 1015,5 - 0,0
12.07.2020 08:00:00 23,2 19,8 4 2 8 5 WNW 1015,2 20 0,0
12.07.2020 07:00:00 22,2 19,6 5 3 13 7 SE 1015,0 - 0,0
12.07.2020 06:00:00 22,4 19,8 9 5 21 11 E 1014,8 - 0,0
12.07.2020 05:00:00 22,6 19,9 16 9 26 14 NE 1014,4 - 0,0
12.07.2020 04:00:00 22,6 20,1 19 10 29 15 ENE 1014,4 - 0,0
12.07.2020 03:00:00 22,6 20,1 25 13 31 17 NE 1014,5 - 0,0
12.07.2020 02:00:00 22,7 19,5 14 8 24 13 E 1014,2 - 0,0
12.07.2020 01:00:00 22,7 19,9 14 7 24 13 E 1014,4 - 0,0
12.07.2020 00:00:00 23,1 20,2 21 12 29 16 E 1014,3 - 0,0
11.07.2020 23:00:00 23,5 19,6 14 8 25 13 E 1014,4 - 0,0
11.07.2020 22:00:00 23,7 19,6 13 7 19 10 E 1014,2 - 0,0
11.07.2020 21:00:00 24,3 19,8 8 5 29 16 NNE 1013,8 - 0,0
11.07.2020 20:00:00 25,7 20,5 19 10 53 29 WSW 1012,5 20 0,0
11.07.2020 19:00:00 25,9 21,6 32 18 61 33 WSW 1012,0 - 0,0
11.07.2020 18:00:00 26,5 20,8 35 19 61 33 WSW 1012,1 - 0,0
11.07.2020 17:00:00 27,3 20,6 32 17 56 31 WSW 1012,4 - 0,0
11.07.2020 16:00:00 28,6 21,1 29 16 54 29 W 1012,5 - 0,0
11.07.2020 15:00:00 29,9 19,9 34 19 54 29 W 1012,4 - 0,0
11.07.2020 14:00:00 29,4 18,5 33 18 52 28 W 1013,0 - 0,0
11.07.2020 13:00:00 27,9 20,2 21 12 40 22 W 1013,8 - 0,0
11.07.2020 12:00:00 26,6 21,6 17 9 34 19 W 1014,0 - 0,0
11.07.2020 11:00:00 25,7 20,3 19 11 33 18 W 1014,1 - 0,0
11.07.2020 10:00:00 25,5 19,4 14 8 29 16 W 1014,3 - 0,0
11.07.2020 09:00:00 25,0 15,0 5 3 16 8 N 1014,4 - 0,0
11.07.2020 08:00:00 23,6 14,9 5 3 20 11 W 1014,2 20 0,0
11.07.2020 07:00:00 23,6 13,7 11 6 21 11 WSW 1014,1 - 0,0
11.07.2020 06:00:00 23,5 12,8 3 2 23 12 W 1013,9 - 0,0
11.07.2020 05:00:00 23,5 13,4 20 11 30 16 S 1013,7 - 0,0
11.07.2020 04:00:00 22,5 14,3 9 5 16 9 SSE 1014,0 - 0,0
11.07.2020 03:00:00 22,4 14,5 10 5 19 10 WSW 1014,1 - 0,0
11.07.2020 02:00:00 22,2 16,2 10 5 14 7 W 1014,7 - 0,0
11.07.2020 01:00:00 22,4 15,7 12 6 16 9 S 1014,9 - 0,0
11.07.2020 00:00:00 22,6 17,7 10 5 16 8 SSW 1015,8 - 0,0
10.07.2020 23:00:00 22,6 17,7 11 6 19 10 WSW 1015,6 - 0,0
10.07.2020 22:00:00 22,7 18,2 12 6 24 13 WSW 1015,4 - 0,0
10.07.2020 21:00:00 23,2 18,9 16 8 29 15 W 1014,9 - 0,0
10.07.2020 20:00:00 24,4 17,9 13 7 26 14 W 1014,3 25 0,0
10.07.2020 19:00:00 25,6 15,9 14 7 21 11 WNW 1014,1 - 0,0
10.07.2020 18:00:00 26,8 14,5 7 4 19 10 NNW 1014,0 - 0,0
10.07.2020 17:00:00 26,9 16,8 9 5 19 11 NW 1014,4 - 0,0
10.07.2020 16:00:00 26,7 16,3 10 6 22 12 N 1014,8 - 0,0
10.07.2020 15:00:00 27,4 16,7 14 7 28 15 WNW 1015,2 - 0,0
10.07.2020 14:00:00 26,5 17,0 16 9 27 14 WNW 1015,5 - 0,0
10.07.2020 13:00:00 26,1 15,8 18 10 27 15 W 1016,0 - 0,0
10.07.2020 12:00:00 25,1 16,0 16 9 26 14 W 1016,2 - 0,0
10.07.2020 11:00:00 24,2 17,0 10 6 21 12 WNW 1016,4 25 0,0
10.07.2020 10:00:00 23,6 18,3 16 9 23 12 W 1016,4 - 0,0
10.07.2020 09:00:00 22,9 18,2 10 6 16 9 W 1016,3 - 0,0
10.07.2020 08:00:00 22,3 15,9 8 5 11 6 WSW 1015,8 - 0,0
10.07.2020 07:00:00 24,4 12,4 3 2 11 6 ENE 1015,1 - 0,0
10.07.2020 06:00:00 22,5 14,1 10 6 12 6 SE 1015,0 - 0,0
10.07.2020 05:00:00 22,6 17,3 4 2 5 3 ENE 1015,5 - 0,0
10.07.2020 04:00:00 22,6 12,5 0 0 8 5 N 1015,7 - 0,0
10.07.2020 03:00:00 22,9 13,7 8 4 9 5 ESE 1015,8 - 0,0
10.07.2020 02:00:00 22,8 17,3 3 1 6 4 E 1016,2 - 0,0
10.07.2020 01:00:00 23,3 15,4 5 3 7 4 NW 1016,4 - 0,0
10.07.2020 00:00:00 24,3 10,6 3 2 4 2 N 1016,2 - 0,0
09.07.2020 23:00:00 24,2 10,1 0 0 7 4 N 1016,4 - 0,0
09.07.2020 22:00:00 24,1 12,4 6 3 8 4 WSW 1016,4 - 0,0
09.07.2020 21:00:00 24,9 15,5 2 1 10 5 W 1016,1 - 0,0
09.07.2020 20:00:00 26,9 12,2 6 4 13 7 W 1016,0 - 0,0
09.07.2020 19:00:00 27,1 14,1 6 3 16 8 NNW 1016,1 - 0,0
09.07.2020 18:00:00 26,7 16,9 9 5 18 10 NW 1016,3 - 0,0
09.07.2020 17:00:00 27,2 17,4 10 5 20 11 NW 1016,9 - 0,0
09.07.2020 16:00:00 27,0 16,6 10 5 21 11 NNW 1017,0 - 0,0
09.07.2020 15:00:00 26,6 16,2 10 5 21 12 NW 1017,3 - 0,0
09.07.2020 14:00:00 26,9 16,2 12 6 23 12 NW 1017,6 - 0,0
09.07.2020 13:00:00 26,2 18,6 13 7 23 12 WNW 1017,6 - 0,0
09.07.2020 12:00:00 25,4 18,8 9 5 16 9 NW 1017,5 - 0,0
09.07.2020 11:00:00 25,4 14,2 6 3 14 8 NNW 1017,2 - 0,0
09.07.2020 10:00:00 25,5 17,7 8 4 13 7 NNE 1016,7 - 0,0
09.07.2020 09:00:00 24,6 16,6 6 4 15 8 NE 1016,4 - 0,0
09.07.2020 08:00:00 23,9 18,3 7 4 13 7 E 1016,2 - 0,0
09.07.2020 07:00:00 22,0 20,1 4 2 6 3 W 1016,5 - 0,0
09.07.2020 06:00:00 21,7 19,1 4 2 7 4 W 1016,5 - 0,0
09.07.2020 05:00:00 21,6 16,8 4 2 8 5 S 1016,3 - 0,0
09.07.2020 04:00:00 22,7 16,5 7 4 11 6 NNW 1016,3 - 0,0
09.07.2020 03:00:00 25,1 10,9 3 2 6 3 NE 1016,3 - 0,0
09.07.2020 02:00:00 25,1 10,9 2 1 4 2 E 1016,5 - 0,0
09.07.2020 01:00:00 24,9 10,4 5 3 8 5 E 1016,5 - 0,0
09.07.2020 00:00:00 25,7 10,3 6 4 9 5 SE 1016,3 - 0,0
08.07.2020 23:00:00 25,8 10,4 6 4 12 7 ESE 1015,9 - 0,0
08.07.2020 22:00:00 26,1 9,9 8 4 10 5 SE 1015,9 - 0,0
08.07.2020 21:00:00 26,3 10,8 8 4 14 7 ESE 1015,4 - 0,0
08.07.2020 20:00:00 26,0 15,4 9 5 14 7 E 1015,2 - 0,0
08.07.2020 19:00:00 26,8 14,2 8 4 16 8 E 1015,3 - 0,0
08.07.2020 18:00:00 26,7 13,4 9 5 21 11 ENE 1015,6 - 0,0
08.07.2020 17:00:00 25,8 14,9 11 6 21 11 NNE 1016,1 - 0,0
08.07.2020 16:00:00 25,7 14,5 13 7 23 12 NNE 1016,2 - 0,0
08.07.2020 15:00:00 25,3 14,4 15 8 26 14 NE 1016,1 - 0,0
08.07.2020 14:00:00 25,5 15,2 17 9 24 13 NE 1016,1 - 0,0
08.07.2020 13:00:00 25,1 15,7 15 8 22 12 NE 1016,1 - 0,0
08.07.2020 12:00:00 25,2 15,2 16 8 23 12 NE 1016,0 - 0,0
08.07.2020 11:00:00 25,8 15,2 14 8 23 13 NE 1015,6 21 0,0
08.07.2020 10:00:00 26,4 16,6 13 7 20 11 ENE 1015,3 - 0,0
08.07.2020 09:00:00 24,2 17,4 12 6 19 10 NE 1015,2 - 0,0
08.07.2020 08:00:00 24,6 16,6 8 5 13 7 E 1014,8 20 0,0
08.07.2020 07:00:00 23,7 17,0 10 5 15 8 E 1014,3 - 0,0
08.07.2020 06:00:00 22,5 17,6 7 4 12 6 NE 1014,0 - 0,0
08.07.2020 05:00:00 22,5 19,3 3 1 8 5 NE 1013,8 - 0,0
08.07.2020 04:00:00 22,4 17,7 4 2 5 3 E 1013,8 - 0,0
08.07.2020 03:00:00 22,9 18,9 3 1 17 9 S 1013,7 - 0,0
08.07.2020 02:00:00 22,8 18,8 12 6 21 11 W 1013,8 - 0,0
08.07.2020 01:00:00 22,7 19,5 14 8 26 14 WSW 1013,8 - 0,0
08.07.2020 00:00:00 23,3 18,8 22 12 29 15 W 1013,4 - 0,0
07.07.2020 23:00:00 23,6 18,5 13 7 21 11 SW 1013,1 - 0,0
07.07.2020 22:00:00 24,1 18,5 12 7 30 16 NE 1012,7 - 0,0
07.07.2020 21:00:00 24,9 18,1 16 9 40 21 ENE 1012,0 - 0,0
07.07.2020 20:00:00 25,5 17,4 24 13 44 24 NE 1011,4 - 0,0
07.07.2020 19:00:00 25,9 17,8 27 15 58 31 NE 1011,0 - 0,0
07.07.2020 18:00:00 25,6 18,8 42 23 69 37 NE 1010,5 - 0,0
07.07.2020 17:00:00 26,1 16,9 46 25 76 41 NE 1010,3 - 0,0
07.07.2020 16:00:00 26,0 18,4 53 29 76 41 NE 1010,1 - 0,0
07.07.2020 15:00:00 24,9 19,0 56 30 79 42 NE 1010,1 - 0,0
07.07.2020 14:00:00 25,2 19,3 53 29 74 40 NE 1009,5 - 0,0
07.07.2020 13:00:00 25,0 20,0 45 24 63 34 NE 1009,7 - 0,0
07.07.2020 12:00:00 25,6 20,2 37 20 49 26 NE 1009,6 - 0,0
07.07.2020 11:00:00 25,0 20,7 18 10 26 14 ENE 1009,4 20 0,0
07.07.2020 10:00:00 24,2 20,7 18 10 29 16 NE 1009,3 - 0,0
07.07.2020 09:00:00 23,9 21,0 25 14 36 19 NE 1008,6 - 0,0
07.07.2020 08:00:00 23,3 20,4 18 10 27 15 E 1007,8 - 0,0
07.07.2020 07:00:00 22,4 20,9 14 8 21 11 E 1007,4 - 0,0
07.07.2020 06:00:00 21,8 20,6 9 5 15 8 E 1007,0 - 0,0
07.07.2020 05:00:00 21,9 20,7 5 3 19 11 NE 1006,7 - 0,0
07.07.2020 04:00:00 21,9 20,7 7 4 19 10 N 1006,4 - 0,0
07.07.2020 03:00:00 21,7 20,2 16 9 21 12 E 1006,2 - 0,0
07.07.2020 02:00:00 22,3 20,6 7 4 15 8 N 1006,5 - 0,0
07.07.2020 01:00:00 22,2 19,9 2 1 14 8 WNW 1006,7 - 0,0
07.07.2020 00:00:00 22,4 20,7 11 6 15 8 W 1006,6 - 0,0
06.07.2020 23:00:00 23,5 19,0 9 5 20 11 S 1006,6 - 0,0
06.07.2020 22:00:00 22,8 20,9 14 7 21 11 ESE 1007,2 - 0,0
06.07.2020 21:00:00 23,2 21,5 18 10 29 16 WSW 1007,2 - 0,0
06.07.2020 20:00:00 25,4 20,9 9 5 27 14 WNW 1007,3 - 0,0
06.07.2020 19:00:00 26,2 19,3 18 10 26 14 W 1007,9 - 0,0
06.07.2020 18:00:00 27,7 19,2 7 4 29 15 W 1008,1 - 0,0
06.07.2020 17:00:00 27,2 17,7 16 9 25 13 W 1008,7 - 0,0
06.07.2020 16:00:00 26,0 19,2 10 6 29 16 WNW 1009,0 - 0,0
06.07.2020 15:00:00 25,4 20,9 22 12 34 18 W 1009,8 - 0,0
06.07.2020 14:00:00 24,9 20,6 25 13 35 19 W 1010,3 20 0,0
06.07.2020 13:00:00 25,0 19,4 23 12 35 19 W 1010,6 - 0,0
06.07.2020 12:00:00 24,9 19,7 13 7 22 12 WNW 1010,6 - 0,0
06.07.2020 11:00:00 24,2 18,8 11 6 21 11 WNW 1010,7 - -
06.07.2020 10:00:00 - - - - - - - - - -

tt = Température de l'air
td = dewpoint
ff = Vitesse du vent
fx = gusts
dd = Direction du vent
ppp = reduced air pressure
vv = visibility
rr = Quantités de précipitations

stations d'obs. à proximité